sat.trackr.live / text

‹ back to catalog

STARLINK-31089

NORAD 58610 · 2023-200X

PAYLOAD ACTIVE UNKNOWN

§ Identity

Operator
Country
US
Launch date
2023-12-19
Launch site
AFETR
Launch vehicle
Mass (kg)
RCS (m²)

Purposes: comms

External: N2YO · Heavens-Above · Gunter

§ Orbital elements

Epoch: 2026-05-25T04:01:23.844576Z

Period
94.27 min
Inclination
43.0030°
Eccentricity
0.0001332
Mean motion
15.27565172 rev/d
Perigee alt
482.2 km
Apogee alt
484.0 km
Semi-major
6,861.2 km
B*
-1.5568e-5
RAAN
97.1884°
Arg perigee
273.7599°
Mean anomaly
86.3101°
Rev number
13,530

§ Raw data

STARLINK-310891 58610U 23200X   26145.16763709 -.00000690  00000+0 -15568-4 0  99992 58610  43.0030  97.1884 0001332 273.7599  86.3101 15.27565172135302

JSON: /api/v1/satellites/58610 · /tle

For live sub-satellite position, see the globe view (requires WebGL).

§ Visibility from observer

Set your observer location to see the next 7 days of passes ≥ 10°. The values pass through the URL so the page stays shareable.

No JS? Fill the form by hand. The geolocation button needs JavaScript.